Time,TemperatureF,DewpointF,PressureIn,WindDirection,WindDirectionDegrees,WindSpeedMPH,WindSpeedGustMPH,Humidity,HourlyPrecipIn,Conditions,Clouds,dailyrainin,SolarRadiationWatts/m^2,SoftwareType,DateUTC
2013-01-10 00:09:00,28.3,23.5,29.82,WSW,246,1.0,7.0,82,0.00,,,0.00,0,Wunderground v.1.15,2013-01-10 06:09:00,
2013-01-10 00:14:00,28.5,23.7,29.82,WSW,246,2.0,7.0,82,0.00,,,0.00,0,Wunderground v.1.15,2013-01-10 06:14:00,
2013-01-10 00:24:00,28.6,23.5,29.82,WSW,246,1.0,7.0,81,0.00,,,0.00,0,Wunderground v.1.15,2013-01-10 06:24:00,
2013-01-10 00:34:00,28.2,22.8,29.82,WSW,246,0.0,7.0,80,0.00,,,0.00,0,Wunderground v.1.15,2013-01-10 06:34:00,
2013-01-10 00:44:00,27.2,22.4,29.81,WSW,247,1.0,7.0,82,0.00,,,0.00,0,Wunderground v.1.15,2013-01-10 06:44:00,
2013-01-10 00:54:00,26.7,22.2,29.82,WSW,247,0.0,7.0,83,0.00,,,0.00,0,Wunderground v.1.15,2013-01-10 06:54:00,
2013-01-10 00:59:00,26.3,22.1,29.82,WSW,247,0.0,7.0,84,0.00,,,0.00,0,Wunderground v.1.15,2013-01-10 06:59:00,
2013-01-10 01:09:00,25.7,21.8,29.82,WSW,247,0.0,7.0,85,0.00,,,0.00,0,Wunderground v.1.15,2013-01-10 07:09:00,
2013-01-10 01:19:00,25.3,21.7,29.82,WSW,247,0.0,7.0,86,0.00,,,0.00,0,Wunderground v.1.15,2013-01-10 07:19:00,
2013-01-10 01:24:00,25.4,22.1,29.82,WSW,247,0.0,7.0,87,0.00,,,0.00,0,Wunderground v.1.15,2013-01-10 07:24:00,
2013-01-10 01:34:00,25.4,22.1,29.81,WSW,247,0.0,7.0,87,0.00,,,0.00,0,Wunderground v.1.15,2013-01-10 07:34:00,
2013-01-10 01:44:00,25.6,22.3,29.81,WSW,247,0.0,7.0,87,0.00,,,0.00,0,Wunderground v.1.15,2013-01-10 07:44:00,
2013-01-10 01:53:00,25.6,22.3,29.81,WSW,247,0.0,7.0,87,0.00,,,0.00,0,Wunderground v.1.15,2013-01-10 07:53:00,
2013-01-10 01:59:00,25.4,21.8,29.81,WSW,247,0.0,7.0,86,0.00,,,0.00,0,Wunderground v.1.15,2013-01-10 07:59:00,
2013-01-10 02:08:00,25.1,21.8,29.81,WSW,247,0.0,7.0,87,0.00,,,0.00,0,Wunderground v.1.15,2013-01-10 08:08:00,
2013-01-10 02:14:00,25.2,22.1,29.81,WSW,247,0.0,7.0,88,0.00,,,0.00,0,Wunderground v.1.15,2013-01-10 08:14:00,
2013-01-10 02:24:00,25.2,21.9,29.81,WSW,247,0.0,7.0,87,0.00,,,0.00,0,Wunderground v.1.15,2013-01-10 08:24:00,
2013-01-10 02:34:00,24.8,21.8,29.81,WSW,247,0.0,7.0,88,0.00,,,0.00,0,Wunderground v.1.15,2013-01-10 08:34:00,
2013-01-10 02:43:00,25.0,21.9,29.80,WSW,247,0.0,7.0,88,0.00,,,0.00,0,Wunderground v.1.15,2013-01-10 08:43:00,
2013-01-10 02:48:00,25.1,22.0,29.79,WSW,247,0.0,7.0,88,0.00,,,0.00,0,Wunderground v.1.15,2013-01-10 08:48:00,
2013-01-10 02:58:00,25.3,22.2,29.80,WSW,247,1.0,7.0,88,0.00,,,0.00,0,Wunderground v.1.15,2013-01-10 08:58:00,
2013-01-10 03:08:00,25.6,22.5,29.79,SSW,202,1.0,1.0,88,0.00,,,0.00,0,Wunderground v.1.15,2013-01-10 09:08:00,
2013-01-10 03:13:00,25.6,22.3,29.79,SSW,202,0.0,7.0,87,0.00,,,0.00,0,Wunderground v.1.15,2013-01-10 09:13:00,
2013-01-10 03:23:00,25.5,22.2,29.79,SSW,202,0.0,7.0,87,0.00,,,0.00,0,Wunderground v.1.15,2013-01-10 09:23:00,
2013-01-10 03:28:00,25.4,22.1,29.80,SSE,165,0.0,7.0,87,0.00,,,0.00,0,Wunderground v.1.15,2013-01-10 09:28:00,